Daytona Beach, FL

11:58 AM EDT on March 28, 2017 (GMT -0400)
Daytona Beach International

Weather History for KDAB - March, 2014

Change the Weather History Date:

Friday, March 7, 2014

  Actual Average Record
Temperature  
Mean Temperature 53 °F 63 °F  
Max Temperature 58 °F 73 °F 88 °F (1945)
Min Temperature 48 °F 53 °F 34 °F (1954)
Degree Days  
Heating Degree Days 12 4  
Month to date heating degree days 23 29  
Since 1 July heating degree days 536 711  
Cooling Degree Days 0 2  
Month to date cooling degree days 6 14  
Year to date cooling degree days 90 79  
Growing Degree Days 2 (Base 50)    
Moisture  
Dew Point 48 °F    
Average Humidity 81    
Maximum Humidity 100    
Minimum Humidity 62    
Precipitation  
Precipitation T in 0.14 in 1.70 in (2008)
Month to date precipitation 0.04 0.92  
Year to date precipitation 6.62 6.44  
Sea Level Pressure  
Sea Level Pressure 29.90 in    
Wind  
Wind Speed 9 mph (WNW)    
Max Wind Speed 20 mph    
Max Gust Speed 26 mph    
Visibility 7 miles    
Events Fog , Rain    
T = Trace of Precipitation, MM = Missing Value Source: NWS Daily Summary

Daily Weather History Graph

Daily Weather History Graph

Search for Another Location

Airport or City:

Trip Planner

Search our weather history database for the weather conditions in past years. The results will help you decide how hot, cold, wet, or windy it might be!

Date:

Astronomy

Mar. 07, 2014 Rise Set
Actual Time 6:43 AM EST 6:27 PM EST
Civil Twilight 6:19 AM EST 6:51 PM EST
Nautical Twilight 5:51 AM EST 7:19 PM EST
Astronomical Twilight 5:24 AM EST 7:46 PM EST
Moon 11:03 AM EST (3/7) 12:04 AM EST (3/7)
Length of Visible Light 12h 32m
Length of Day
11h 44m
Waxing Crescent, 42% of the Moon is Illuminated
Mar 7
Waxing Crescent
Mar 8
First Quarter
Mar 16
Full
Mar 23
Last Quarter
Mar 30
New

Hourly Weather History & Observations

Time (EST) Temp. Dew Point Humidity Pressure Visibility Wind Dir Wind Speed Gust Speed Precip Events Conditions
12:53 AM 55.9 °F 53.1 °F 90% 29.81 in 8.0 mi North 6.9 mph - N/A   Overcast
1:53 AM 55.0 °F 53.1 °F 93% 29.81 in 6.0 mi North 5.8 mph - N/A   Overcast
2:53 AM 54.0 °F 52.0 °F 93% 29.80 in 5.0 mi NNW 4.6 mph - N/A   Overcast
3:34 AM 54.0 °F 52.0 °F 93% 29.80 in 1.0 mi NNW 3.5 mph - N/A   Overcast
3:53 AM 54.0 °F 52.0 °F 93% 29.80 in 1.0 mi Calm Calm - N/A   Overcast
4:53 AM 54.0 °F 52.0 °F 93% 29.80 in 1.0 mi Calm Calm - N/A   Overcast
5:53 AM 54.0 °F 53.1 °F 97% 29.81 in 0.5 mi Calm Calm - N/A Fog Fog
6:53 AM 54.0 °F 53.1 °F 97% 29.83 in 0.5 mi West 4.6 mph - N/A Fog Fog
7:53 AM 54.0 °F 53.1 °F 97% 29.86 in 0.5 mi West 4.6 mph - 0.00 in Fog , Rain Light Rain
8:03 AM 54.0 °F 53.1 °F 97% 29.86 in 1.0 mi West 8.1 mph - 0.00 in   Overcast
8:53 AM 53.1 °F 52.0 °F 96% 29.88 in 1.0 mi WNW 6.9 mph - 0.00 in Rain Light Rain
9:46 AM 52.0 °F 50.0 °F 93% 29.90 in 9.0 mi West 13.8 mph - 0.00 in   Overcast
9:53 AM 53.1 °F 50.0 °F 89% 29.90 in 10.0 mi West 15.0 mph 24.2 mph 0.00 in   Overcast
10:53 AM 52.0 °F 48.0 °F 86% 29.92 in 10.0 mi West 11.5 mph - N/A   Overcast
11:30 AM 53.1 °F 46.0 °F 77% 29.93 in 10.0 mi West 15.0 mph 24.2 mph N/A   Overcast
11:53 AM 53.1 °F 46.0 °F 77% 29.92 in 10.0 mi West 16.1 mph 24.2 mph N/A   Overcast
12:53 PM 57.9 °F 46.0 °F 65% 29.89 in 10.0 mi West 17.3 mph 21.9 mph N/A   Mostly Cloudy
1:53 PM 57.0 °F 45.0 °F 64% 29.88 in 10.0 mi West 16.1 mph - N/A   Overcast
2:53 PM 53.1 °F 44.1 °F 71% 29.89 in 10.0 mi West 17.3 mph 26.5 mph N/A   Overcast
3:53 PM 53.1 °F 44.1 °F 71% 29.90 in 10.0 mi West 11.5 mph - N/A   Overcast
4:53 PM 51.1 °F 44.1 °F 77% 29.92 in 10.0 mi West 15.0 mph 21.9 mph N/A   Overcast
5:53 PM 51.1 °F 43.0 °F 74% 29.96 in 10.0 mi NW 11.5 mph - N/A   Overcast
6:53 PM 48.9 °F 41.0 °F 74% 29.98 in 10.0 mi NW 15.0 mph 20.7 mph N/A   Overcast
7:53 PM 48.0 °F 39.9 °F 74% 30.01 in 10.0 mi NW 9.2 mph 18.4 mph N/A   Mostly Cloudy
8:53 PM 48.0 °F 39.9 °F 74% 30.04 in 10.0 mi West 6.9 mph - N/A   Overcast
9:53 PM 48.0 °F 41.0 °F 77% 30.05 in 10.0 mi West 5.8 mph - N/A   Mostly Cloudy
10:53 PM 48.9 °F 42.1 °F 77% 30.07 in 10.0 mi West 6.9 mph - N/A   Overcast
11:53 PM 48.9 °F 42.1 °F 77% 30.07 in 10.0 mi West 8.1 mph - N/A   Overcast